Location: Dead Woman Crossing
(43.5369°N, 106.3228°W)
Time: 17:03:47
(UTC+00:00)

QB50P2 - Pass Details

Date: 25 June 2022
Orbit: 590 x 605 km, 97.9° (Epoch: 18 August)

Event Time Altitude Azimuth Distance (km) Brightness Sun altitude
Rises 08:40:59 0° 10° (N) 2,854 ? -19.8°
Reaches altitude 10° 08:43:09 10° 9° (N) 1,949 ? -19.6°
Maximum altitude 08:47:22 72° 286° (WNW) 636 ? -19.3°
Enters shadow 08:48:32 46° 215° (SW) 813 ? -19.2°
